[[{"header":{"parameterUnit":"m.s-1","parameterCategory":2,"la1":30.2991,"la2":30.254,"lo1":-89.0895,"lo2":-89.0444,"dy":0.0017,"dx":0.0017,"nx":28,"ny":28,"refTime":"2024-10-08T09:00:00:Z","depth":"0","parameterNumber":2,"parameterNumberName":"U-component_of_CURRENTS"},"data":[0,0,0,0,0,0,0,0,0,0,0,0,0,0,0,0,0,0,0,0,0,0,0,0,0,0,0,0,0,0,0,0,0,0,0,0,0,0,0,0,0,0,0,0,0,0,0,0,0,0,0,0,0,0,0,0,0,0,-0.2403,-0.2403,0,-0.2414,-0.2414,-0.2414,-0.2362,-0.2361,-0.236,-0.2359,-0.2294,-0.2293,-0.2293,0,0,0,0,0,0,0,0,0,0,0,0,0,-0.2331,-0.2332,-0.2403,-0.2403,-0.2404,-0.2415,-0.2414,-0.2414,-0.2362,-0.2361,-0.236,-0.2359,-0.2295,-0.2294,-0.2292,0,0,0,0,0,0,0,0,0,0,0,0,0,-0.2348,-0.2332,-0.2402,-0.2385,-0.2384,-0.2415,-0.2414,-0.2413,-0.2362,-0.2361,-0.2359,-0.2358,-0.2295,-0.2294,-0.2292,-0.2311,0,0,-0.2288,-0.2288,0,0,0,0,0,0,0,0,-0.2347,-0.2349,-0.2386,-0.2386,-0.2385,-0.2391,-0.2365,-0.2378,-0.2362,-0.2363,-0.2359,-0.2357,-0.2325,-0.2321,-0.2318,-0.2308,-0.2305,-0.2288,-0.2287,-0.2287,-0.2286,0,0,0,0,0,0,0,-0.2346,-0.2349,-0.24,-0.2388,-0.2387,-0.2375,-0.2375,-0.2367,-0.2345,-0.2363,-0.2361,-0.2373,-0.2323,-0.2319,-0.2316,-0.2304,-0.2288,-0.2287,-0.2286,-0.2286,-0.2307,-0.2308,0,0,0,0,0,0,-0.236,-0.2348,-0.24,-0.2401,-0.237,-0.2378,-0.2378,-0.2385,-0.2346,-0.2342,-0.2375,-0.2371,-0.2322,-0.2317,-0.2313,-0.2332,-0.2287,-0.2285,-0.2285,-0.2306,-0.2307,-0.2309,0,0,0,0,0,0,-0.2358,-0.2364,-0.24,-0.238,-0.2385,-0.2381,-0.2389,-0.2386,-0.2379,-0.2358,-0.235,-0.2371,-0.2321,-0.2315,-0.2312,-0.2329,-0.2285,-0.2284,-0.2304,-0.2306,-0.2308,-0.2371,0,0,0,0,0,0,-0.2356,-0.2363,-0.2363,-0.2381,-0.2387,-0.2423,-0.2391,-0.2387,-0.2393,-0.2387,-0.2353,-0.2345,-0.2319,-0.2315,-0.2311,-0.2326,-0.2283,-0.2302,-0.2305,-0.2308,-0.2367,-0.2375,-0.2381,0,0,0,0,0,-0.2353,-0.2366,-0.2363,-0.237,-0.239,-0.2425,-0.2426,-0.2414,-0.2394,-0.2399,-0.2377,-0.2346,-0.2328,-0.2315,-0.231,-0.2326,-0.2301,-0.2304,-0.2307,-0.2364,-0.2373,-0.2381,0,0,0,0,0,0,-0.2333,-0.2363,-0.236,-0.2379,-0.2403,-0.2418,-0.2426,-0.242,-0.2407,-0.2401,-0.2363,-0.2356,-0.236,-0.234,-0.2326,-0.2342,-0.231,-0.2313,-0.2355,-0.2363,-0.237,-0.2374,-0.2282,0,0,0,0,0,-0.2333,-0.2344,-0.2378,-0.2391,-0.2409,-0.2417,-0.2426,-0.2428,-0.2429,-0.2421,-0.2397,-0.2378,-0.2372,-0.2364,-0.2355,-0.2364,-0.2339,-0.2372,-0.2379,-0.2385,-0.2387,-0.239,-0.2398,-0.2319,-0.2319,-0.2319,0,0,-0.2322,-0.2346,-0.2347,-0.2387,-0.2402,-0.2434,-0.2417,-0.2447,-0.2464,-0.2418,-0.2419,-0.2403,-0.2382,-0.2391,-0.2391,-0.2373,-0.2391,-0.2389,-0.2395,-0.2393,-0.2394,-0.2402,-0.2408,-0.2321,-0.2321,-0.232,0,0,-0.2327,-0.234,-0.2357,-0.2385,-0.2429,-0.2447,-0.246,-0.2483,-0.2483,-0.2496,-0.2469,-0.2467,-0.2449,-0.2443,-0.2436,-0.2481,-0.2432,-0.2474,-0.2509,-0.2513,-0.2519,-0.2524,-0.2483,-0.2484,-0.2475,-0.2475,-0.2475,0,-0.2318,-0.234,-0.2367,-0.2402,-0.2427,-0.2456,-0.2488,-0.2506,-0.2519,-0.2528,-0.2504,-0.25,-0.2477,-0.2497,-0.2505,-0.2497,-0.2473,-0.2476,-0.2521,-0.2526,-0.2531,-0.2487,-0.2488,-0.2479,-0.2478,-0.2478,-0.2478,0,-0.2345,-0.2358,-0.2378,-0.2427,-0.2462,-0.2497,-0.2544,-0.2567,-0.2571,-0.2582,-0.2602,-0.2581,-0.2574,-0.2572,-0.2545,-0.2571,-0.2533,-0.2532,-0.2497,-0.2542,-0.2494,-0.2493,-0.2484,-0.2482,-0.2481,-0.248,0,0,-0.232,-0.2383,-0.2385,-0.2406,-0.2478,-0.2513,-0.2565,-0.2616,-0.2642,-0.2656,-0.2672,-0.2675,-0.2662,-0.2654,-0.2632,-0.2631,-0.2627,-0.259,-0.2588,-0.2544,-0.2598,-0.2544,-0.2537,-0.2632,-0.2633,-0.2633,-0.2544,0,-0.2324,-0.2381,-0.2418,-0.2465,-0.2493,-0.255,-0.2594,-0.2649,-0.2675,-0.2698,-0.2708,-0.2712,-0.2697,-0.2683,-0.269,-0.2636,-0.2631,-0.2648,-0.2566,-0.2562,-0.2506,-0.2537,-0.2422,-0.2332,-0.2543,-0.2543,-0.2543,0,-0.2316,-0.2363,-0.2409,-0.2476,-0.2499,-0.2536,-0.2616,-0.2663,-0.2721,-0.2737,-0.2764,-0.276,-0.2761,-0.2739,-0.2701,-0.2709,-0.2661,-0.2626,-0.2622,-0.255,-0.2508,-0.2326,-0.2322,-0.2307,-0.2541,-0.2542,-0.2542,0,-0.2266,-0.2337,-0.2374,-0.24,-0.2499,-0.2529,-0.2583,-0.266,-0.2697,-0.2751,-0.2757,-0.2787,-0.2762,-0.2747,-0.2678,-0.2684,-0.2619,-0.2618,-0.2531,-0.2524,-0.2399,-0.2381,-0.2367,-0.2606,-0.2606,-0.2606,-0.2607,0,-0.2238,-0.2255,-0.2348,-0.2374,-0.2426,-0.2501,-0.2555,-0.2618,-0.2679,-0.27,-0.276,-0.2749,-0.2762,-0.2728,-0.2684,-0.2593,-0.2626,-0.2535,-0.2509,-0.2415,-0.24,-0.2359,-0.2376,-0.2603,-0.2604,-0.2604,-0.2605,0,-0.215,-0.2212,-0.2256,-0.2365,-0.2396,-0.243,-0.253,-0.2559,-0.2632,-0.2649,-0.2659,-0.2703,-0.2663,-0.2665,-0.2609,-0.2571,-0.2458,-0.2474,-0.2343,-0.2305,-0.2217,-0.2241,-0.2174,-0.2115,-0.236,-0.2358,-0.2357,0,-0.2113,-0.2123,-0.2235,-0.2259,-0.2299,-0.2364,-0.2401,-0.2514,-0.2533,-0.2595,-0.2575,-0.258,-0.2546,-0.2472,-0.2431,-0.2368,-0.2368,-0.2219,-0.2231,-0.2199,-0.2206,-0.2218,-0.2174,-0.2071,-0.2067,-0.2064,-0.2062,0,-0.2035,-0.2065,-0.2109,-0.2167,-0.2206,-0.2258,-0.2309,-0.2318,-0.2416,-0.2425,-0.2398,-0.2383,-0.236,-0.2262,-0.2228,-0.2171,-0.2161,-0.2156,-0.2161,-0.2016,-0.1987,-0.192,-0.2123,-0.2035,-0.2038,-0.2039,-0.2041,-0.2042,-0.1962,-0.1961,-0.2012,-0.2049,-0.2096,-0.2102,-0.2074,-0.2123,-0.2125,-0.2099,-0.2174,-0.213,-0.2115,-0.2057,-0.2011,-0.1913,-0.1975,-0.1848,-0.1884,-0.1903,-0.1845,-0.1979,-0.1852,-0.1854,-0.1855,-0.1856,-0.1857,0,-0.1868,-0.1867,-0.1891,-0.192,-0.1894,-0.1972,-0.1971,-0.1904,-0.1828,-0.1888,-0.1861,-0.1871,-0.1784,-0.1803,-0.1739,-0.1664,-0.1625,-0.1625,-0.1616,-0.1588,-0.1721,-0.1708,-0.1498,-0.1498,-0.1498,-0.1498,-0.1498,-0.1498,-0.1823,-0.1788,-0.1794,-0.171,-0.1708,-0.1609,-0.1563,-0.15,-0.1504,-0.1469,-0.1523,-0.1619,-0.1652,-0.1729,-0.1627,-0.1543,-0.1514,-0.145,-0.1501,-0.1608,-0.1632,-0.1655,-0.1648,-0.1428,-0.1428,-0.1289,-0.1288,-0.1287]},{"header":{"parameterUnit":"m.s-1","parameterCategory":2,"la1":30.2991,"la2":30.254,"lo1":-89.0895,"lo2":-89.0444,"dy":0.0017,"dx":0.0017,"nx":28,"ny":28,"refTime":"2024-10-08T09:00:00:Z","depth":"0","parameterNumber":3,"parameterNumberName":"V-component_of_CURRENTS"},"data":[0,0,0,0,0,0,0,0,0,0,0,0,0,0,0,0,0,0,0,0,0,0,0,0,0,0,0,0,0,0,0,0,0,0,0,0,0,0,0,0,0,0,0,0,0,0,0,0,0,0,0,0,0,0,0,0,0,0,-0.0423,-0.0423,0,-0.0352,-0.0351,-0.035,-0.028,-0.028,-0.028,-0.0279,-0.0186,-0.0184,-0.0182,0,0,0,0,0,0,0,0,0,0,0,0,0,-0.0462,-0.0461,-0.0423,-0.0423,-0.0422,-0.0353,-0.0351,-0.0349,-0.0281,-0.028,-0.028,-0.0279,-0.0187,-0.0184,-0.0182,0,0,0,0,0,0,0,0,0,0,0,0,0,-0.0418,-0.0461,-0.0423,-0.0384,-0.038,-0.0353,-0.0351,-0.0349,-0.0281,-0.028,-0.028,-0.0279,-0.0188,-0.0184,-0.0181,-0.0173,0,0,-0.0172,-0.017,0,0,0,0,0,0,0,0,-0.0421,-0.0416,-0.039,-0.0386,-0.0382,-0.033,-0.0331,-0.0291,-0.0281,-0.0312,-0.0279,-0.0279,-0.0236,-0.0229,-0.0209,-0.0168,-0.0164,-0.0171,-0.0169,-0.0168,-0.0167,0,0,0,0,0,0,0,-0.0424,-0.0419,-0.0389,-0.039,-0.0385,-0.0358,-0.035,-0.0322,-0.0273,-0.0309,-0.0306,-0.0307,-0.0233,-0.0212,-0.0206,-0.0163,-0.0171,-0.0168,-0.0166,-0.0165,-0.0088,-0.0088,0,0,0,0,0,0,-0.0447,-0.0422,-0.0391,-0.0388,-0.0407,-0.0358,-0.035,-0.0342,-0.0274,-0.0265,-0.0308,-0.0304,-0.0218,-0.021,-0.0203,-0.018,-0.0168,-0.0165,-0.0163,-0.0088,-0.0088,-0.0088,0,0,0,0,0,0,-0.0448,-0.0444,-0.0394,-0.0408,-0.0401,-0.0359,-0.0351,-0.0341,-0.0322,-0.0274,-0.0263,-0.0299,-0.0217,-0.0207,-0.0176,-0.0176,-0.0163,-0.0161,-0.0089,-0.0088,-0.0088,-0.014,0,0,0,0,0,0,-0.0449,-0.0445,-0.0445,-0.041,-0.0401,-0.0389,-0.0352,-0.0341,-0.0327,-0.0321,-0.0263,-0.0254,-0.0216,-0.0181,-0.0173,-0.0172,-0.0158,-0.0089,-0.0088,-0.0088,-0.0139,-0.0142,-0.0145,0,0,0,0,0,-0.045,-0.0457,-0.0445,-0.0442,-0.0403,-0.039,-0.0382,-0.0347,-0.0327,-0.0325,-0.0279,-0.0255,-0.0173,-0.0178,-0.0169,-0.0167,-0.0089,-0.0089,-0.0088,-0.0137,-0.0141,-0.0145,0,0,0,0,0,0,-0.0481,-0.045,-0.0436,-0.0435,-0.042,-0.0381,-0.0377,-0.0354,-0.0316,-0.0311,-0.0255,-0.0243,-0.0214,-0.0185,-0.0192,-0.0143,-0.0127,-0.0125,-0.0167,-0.0171,-0.0174,-0.0186,-0.0155,0,0,0,0,0,-0.049,-0.0482,-0.0456,-0.0459,-0.0451,-0.0415,-0.0405,-0.0386,-0.0352,-0.0334,-0.0291,-0.0246,-0.0205,-0.0185,-0.0149,-0.0126,-0.009,-0.0118,-0.0121,-0.0123,-0.0126,-0.0073,-0.0072,-0.0087,-0.0087,-0.0087,0,0,-0.0507,-0.0489,-0.0487,-0.0465,-0.0445,-0.0442,-0.0406,-0.0402,-0.0392,-0.0332,-0.03,-0.0258,-0.0202,-0.0171,-0.0156,-0.0147,-0.0099,-0.0123,-0.0126,-0.0127,-0.0073,-0.0071,-0.007,-0.0087,-0.0087,-0.0087,0,0,-0.0543,-0.0519,-0.0525,-0.051,-0.0495,-0.0472,-0.0476,-0.0441,-0.0414,-0.0389,-0.0336,-0.0295,-0.0241,-0.0194,-0.0164,-0.0163,-0.0118,-0.0153,-0.0176,-0.0125,-0.0123,-0.0121,-0.0072,-0.0065,-0.0153,-0.0153,-0.0153,0,-0.0571,-0.0564,-0.0529,-0.053,-0.0527,-0.049,-0.0502,-0.0469,-0.0428,-0.0405,-0.039,-0.0291,-0.0249,-0.0194,-0.0191,-0.017,-0.0134,-0.0169,-0.0129,-0.0127,-0.0124,-0.0073,-0.0065,-0.0156,-0.0156,-0.0155,-0.0155,0,-0.0609,-0.0599,-0.0604,-0.0587,-0.058,-0.0586,-0.0548,-0.0528,-0.0496,-0.0458,-0.0404,-0.0338,-0.0278,-0.0257,-0.0223,-0.0179,-0.0158,-0.0142,-0.0124,-0.0126,-0.0072,-0.0063,-0.0159,-0.0159,-0.0158,-0.0157,0,0,-0.067,-0.064,-0.0637,-0.0641,-0.0611,-0.0617,-0.0593,-0.0562,-0.0541,-0.0488,-0.0452,-0.0376,-0.0335,-0.0298,-0.0245,-0.0199,-0.0147,-0.0168,-0.0164,-0.0125,-0.0032,0.0008,0.0023,-0.0125,-0.0123,-0.0122,-0.0002,0,-0.071,-0.0731,-0.0697,-0.0717,-0.0725,-0.0679,-0.0661,-0.0626,-0.0576,-0.0527,-0.0446,-0.0395,-0.035,-0.0322,-0.0268,-0.0173,-0.0125,-0.0181,-0.003,-0.0026,0.0005,0.0034,0.006,0.0172,0.0007,0.0009,0.001,0,-0.0742,-0.0754,-0.0785,-0.0776,-0.0776,-0.0782,-0.075,-0.0729,-0.064,-0.0597,-0.0523,-0.0453,-0.0363,-0.0336,-0.0177,-0.0215,-0.0133,-0.0064,-0.0057,0.0004,0.0032,0.0148,0.0196,0.0335,0.0025,0.0024,0.0023,0,-0.0802,-0.0806,-0.0838,-0.0837,-0.0825,-0.0828,-0.0819,-0.0752,-0.0728,-0.0637,-0.0604,-0.0485,-0.0418,-0.0305,-0.0152,-0.0164,0.0019,0.0024,0.0137,0.0141,0.0206,0.0213,0.0402,0.0123,0.0123,0.0123,0.0122,0,-0.0841,-0.0864,-0.0871,-0.0891,-0.0931,-0.0894,-0.0907,-0.0865,-0.0797,-0.0762,-0.0647,-0.0583,-0.0407,-0.0275,-0.0156,0.0032,0.0023,0.0143,0.018,0.0189,0.0193,0.0351,0.0394,0.0127,0.0126,0.0125,0.0124,0,-0.0886,-0.0886,-0.0932,-0.0949,-0.0959,-0.0988,-0.0984,-0.0979,-0.09,-0.0846,-0.0819,-0.0644,-0.0461,-0.0283,-0.0074,0.0037,0.0286,0.0259,0.026,0.0294,0.0518,0.0554,0.0759,0.0829,0.0405,0.0407,0.0409,0,-0.0923,-0.0946,-0.0995,-0.1034,-0.1045,-0.1079,-0.1096,-0.1041,-0.1019,-0.0876,-0.0848,-0.0655,-0.0502,-0.0173,0.0056,0.0289,0.0377,0.0441,0.0422,0.055,0.0617,0.0637,0.0681,0.0492,0.0494,0.0496,0.0497,0,-0.0989,-0.0995,-0.1025,-0.1115,-0.1158,-0.1197,-0.1204,-0.1192,-0.11,-0.1022,-0.087,-0.0734,-0.0399,-0.0097,0.021,0.0346,0.0541,0.0482,0.0625,0.0713,0.0738,0.0815,0.0389,0.0512,0.051,0.0509,0.0508,0.0508,-0.1037,-0.1072,-0.1116,-0.1191,-0.1247,-0.1281,-0.1279,-0.1251,-0.119,-0.1025,-0.0899,-0.0659,-0.0235,0.0216,0.0377,0.073,0.0682,0.0828,0.0866,0.0878,0.0938,0.0541,0.0694,0.0693,0.0693,0.0693,0.0692,0,-0.1087,-0.1112,-0.1196,-0.1267,-0.1324,-0.134,-0.1325,-0.1274,-0.1175,-0.1023,-0.0852,-0.0376,0.0042,0.0424,0.0915,0.1104,0.1132,0.1196,0.1239,0.1268,0.0942,0.0938,0.1138,0.1138,0.1138,0.1138,0.1137,0.1137,-0.1118,-0.1176,-0.1213,-0.1314,-0.1355,-0.1371,-0.1341,-0.1244,-0.1116,-0.0828,-0.0559,-0.0358,0.0201,0.0979,0.1431,0.147,0.1611,0.1599,0.1675,0.1457,0.1425,0.1395,0.1405,0.17,0.17,0.1989,0.1992,0.1994]}],[{"header":{"parameterUnit":"m.s-1","parameterCategory":2,"la1":30.2991,"la2":30.254,"lo1":-89.0895,"lo2":-89.0444,"dy":0.0017,"dx":0.0017,"nx":28,"ny":28,"refTime":"2024-10-08T09:00:00:Z","depth":"2","parameterNumber":2,"parameterNumberName":"U-component_of_CURRENTS"},"data":[0,0,0,0,0,0,0,0,0,0,0,0,0,0,0,0,0,0,0,0,0,0,0,0,0,0,0,0,0,0,0,0,0,0,0,0,0,0,0,0,0,0,0,0,0,0,0,0,0,0,0,0,0,0,0,0,0,0,-0.21,-0.21,0,-0.2095,-0.2095,-0.2095,-0.2079,-0.2079,-0.2079,-0.2079,-0.2058,-0.2057,-0.2057,0,0,0,0,0,0,0,0,0,0,0,0,0,-0.2048,-0.2049,-0.21,-0.21,-0.21,-0.2095,-0.2095,-0.2095,-0.2079,-0.2079,-0.2079,-0.2079,-0.2058,-0.2057,-0.2057,0,0,0,0,0,0,0,0,0,0,0,0,0,-0.2058,-0.2049,-0.21,-0.2093,-0.2092,-0.2095,-0.2095,-0.2095,-0.2079,-0.2079,-0.2079,-0.2078,-0.2058,-0.2058,-0.2057,-0.2059,0,0,-0.2055,-0.2055,0,0,0,0,0,0,0,0,-0.2058,-0.206,-0.2094,-0.2093,-0.2093,-0.2089,-0.2069,-0.2082,-0.2079,-0.2082,-0.2079,-0.2078,-0.2068,-0.2067,-0.2064,-0.2058,-0.2057,-0.2055,-0.2055,-0.2055,-0.2054,0,0,0,0,0,0,0,-0.2057,-0.206,-0.2096,-0.2094,-0.2093,-0.2074,-0.2075,-0.2071,-0.2075,-0.2082,-0.2081,-0.2084,-0.2067,-0.2065,-0.2064,-0.2057,-0.2055,-0.2055,-0.2054,-0.2054,-0.2087,-0.2089,0,0,0,0,0,0,-0.2064,-0.2059,-0.2096,-0.2096,-0.2076,-0.2076,-0.2077,-0.2089,-0.2076,-0.2074,-0.2084,-0.2083,-0.2066,-0.2064,-0.2063,-0.2106,-0.2055,-0.2054,-0.2054,-0.2086,-0.2088,-0.2089,0,0,0,0,0,0,-0.2063,-0.2068,-0.2096,-0.2078,-0.2081,-0.2077,-0.209,-0.2089,-0.2088,-0.2078,-0.2075,-0.2085,-0.2066,-0.2064,-0.2074,-0.2104,-0.2054,-0.2053,-0.2085,-0.2087,-0.2088,-0.2166,0,0,0,0,0,0,-0.2062,-0.2068,-0.2077,-0.2079,-0.2082,-0.2097,-0.2091,-0.2089,-0.209,-0.2089,-0.2077,-0.2075,-0.2065,-0.2075,-0.2074,-0.2102,-0.2053,-0.2083,-0.2086,-0.2088,-0.2162,-0.2171,-0.2178,0,0,0,0,0,-0.206,-0.207,-0.2077,-0.2082,-0.2096,-0.2097,-0.2096,-0.2091,-0.2091,-0.2089,-0.2095,-0.2075,-0.2089,-0.2076,-0.2074,-0.2102,-0.2082,-0.2085,-0.2088,-0.2159,-0.2169,-0.2178,0,0,0,0,0,0,-0.2049,-0.207,-0.2078,-0.2094,-0.2097,-0.2095,-0.2096,-0.2094,-0.2097,-0.2118,-0.2089,-0.2088,-0.2112,-0.2093,-0.2079,-0.2119,-0.2083,-0.2085,-0.2138,-0.2147,-0.2155,-0.2155,-0.2052,0,0,0,0,0,-0.2054,-0.2066,-0.2081,-0.209,-0.2099,-0.21,-0.21,-0.2117,-0.2121,-0.2121,-0.2109,-0.2113,-0.2121,-0.2122,-0.2126,-0.2142,-0.2115,-0.2159,-0.2167,-0.2174,-0.2172,-0.2172,-0.2179,-0.2098,-0.2098,-0.2098,0,0,-0.2048,-0.2064,-0.2068,-0.2089,-0.2094,-0.2118,-0.2099,-0.2127,-0.2153,-0.2121,-0.2144,-0.2142,-0.2132,-0.216,-0.2168,-0.2147,-0.2181,-0.2177,-0.2183,-0.2178,-0.2175,-0.2183,-0.219,-0.21,-0.21,-0.2099,0,0,-0.2042,-0.2065,-0.2073,-0.2088,-0.2121,-0.214,-0.215,-0.2169,-0.218,-0.2208,-0.2202,-0.2215,-0.2211,-0.2218,-0.2218,-0.2267,-0.2226,-0.2268,-0.2304,-0.2305,-0.2311,-0.2317,-0.2285,-0.2287,-0.2268,-0.2268,-0.2269,0,-0.2039,-0.2061,-0.2072,-0.2093,-0.2114,-0.2151,-0.218,-0.2203,-0.2225,-0.224,-0.2229,-0.2251,-0.2241,-0.2276,-0.2293,-0.2286,-0.2265,-0.2271,-0.2315,-0.232,-0.2324,-0.229,-0.2292,-0.2272,-0.2272,-0.2272,-0.2271,0,-0.2069,-0.2069,-0.2078,-0.2125,-0.2146,-0.2188,-0.2233,-0.227,-0.2297,-0.2312,-0.2351,-0.2346,-0.2349,-0.2357,-0.2337,-0.237,-0.2337,-0.2329,-0.2291,-0.2337,-0.2298,-0.2298,-0.2278,-0.2277,-0.2276,-0.2275,0,0,-0.2057,-0.21,-0.2083,-0.2106,-0.2184,-0.2202,-0.2272,-0.2328,-0.2367,-0.24,-0.2419,-0.2448,-0.2442,-0.2441,-0.2429,-0.2428,-0.2435,-0.2389,-0.2387,-0.2358,-0.2411,-0.2356,-0.235,-0.2434,-0.2435,-0.2436,-0.2369,0,-0.2068,-0.2102,-0.2129,-0.216,-0.2185,-0.2256,-0.2305,-0.2371,-0.2411,-0.244,-0.2469,-0.2483,-0.2477,-0.2477,-0.2484,-0.244,-0.2439,-0.2452,-0.2371,-0.2368,-0.2314,-0.2351,-0.216,-0.2083,-0.2368,-0.2368,-0.2368,0,-0.2059,-0.2089,-0.2125,-0.2178,-0.2199,-0.2242,-0.2338,-0.239,-0.2462,-0.2489,-0.2528,-0.2532,-0.2545,-0.2526,-0.2502,-0.2508,-0.2468,-0.2437,-0.2433,-0.2354,-0.2314,-0.2085,-0.2071,-0.2367,-0.2367,-0.2367,-0.2367,0,-0.2018,-0.2057,-0.2093,-0.2118,-0.221,-0.225,-0.2314,-0.2398,-0.244,-0.2506,-0.2521,-0.2561,-0.255,-0.2538,-0.2485,-0.2489,-0.2438,-0.2432,-0.2351,-0.2345,-0.2152,-0.2129,-0.2421,-0.2421,-0.2422,-0.2422,-0.2422,0,-0.2003,-0.2003,-0.2074,-0.21,-0.2154,-0.2222,-0.2292,-0.2362,-0.2438,-0.2465,-0.2527,-0.253,-0.255,-0.2526,-0.2491,-0.2414,-0.2445,-0.2358,-0.2333,-0.2173,-0.2154,-0.2376,-0.2372,-0.2419,-0.242,-0.242,-0.2421,0,-0.191,-0.1966,-0.2003,-0.2103,-0.2129,-0.2164,-0.2273,-0.2316,-0.2396,-0.2424,-0.2439,-0.2493,-0.2465,-0.2473,-0.2429,-0.2395,-0.2343,-0.231,-0.2111,-0.2065,-0.2245,-0.2246,-0.221,-0.2207,-0.2205,-0.2204,-0.2202,0,-0.1875,-0.1876,-0.1978,-0.2009,-0.205,-0.2116,-0.2161,-0.2277,-0.2304,-0.2379,-0.2364,-0.2383,-0.2356,-0.2298,-0.2255,-0.2199,-0.2273,-0.1993,-0.1981,-0.2248,-0.2228,-0.2231,-0.2234,-0.1741,-0.1736,-0.1732,-0.1728,0,-0.18,-0.1832,-0.1881,-0.1928,-0.1977,-0.2024,-0.2084,-0.2099,-0.2202,-0.2219,-0.2207,-0.2199,-0.2177,-0.2043,-0.201,-0.1952,-0.1995,-0.1908,-0.2224,-0.1844,-0.1806,-0.1787,-0.1805,-0.1692,-0.1695,-0.1698,-0.17,-0.1702,-0.1746,-0.1749,-0.1807,-0.1833,-0.1886,-0.1892,-0.1875,-0.1925,-0.1931,-0.1912,-0.199,-0.1922,-0.1918,-0.1775,-0.1691,-0.1641,-0.1784,-0.1689,-0.1701,-0.1718,-0.1696,-0.1659,-0.151,-0.1513,-0.1515,-0.1517,-0.1518,0,-0.169,-0.1683,-0.1704,-0.1736,-0.172,-0.1784,-0.1785,-0.1728,-0.1664,-0.1695,-0.1672,-0.1501,-0.142,-0.144,-0.131,-0.1293,-0.1274,-0.1231,-0.1195,-0.1231,-0.1264,-0.1219,-0.0906,-0.0904,-0.0903,-0.0901,0,0,-0.1673,-0.1648,-0.1637,-0.1557,-0.1555,-0.1464,-0.1428,-0.1366,-0.1345,-0.1264,-0.1236,-0.1338,-0.1383,-0.1141,-0.1086,-0.0977,-0.1092,-0.0923,-0.141,-0.1402,-0.1433,-0.1519,-0.1491,0,0,0,0,0]},{"header":{"parameterUnit":"m.s-1","parameterCategory":2,"la1":30.2991,"la2":30.254,"lo1":-89.0895,"lo2":-89.0444,"dy":0.0017,"dx":0.0017,"nx":28,"ny":28,"refTime":"2024-10-08T09:00:00:Z","depth":"2","parameterNumber":3,"parameterNumberName":"V-component_of_CURRENTS"},"data":[0,0,0,0,0,0,0,0,0,0,0,0,0,0,0,0,0,0,0,0,0,0,0,0,0,0,0,0,0,0,0,0,0,0,0,0,0,0,0,0,0,0,0,0,0,0,0,0,0,0,0,0,0,0,0,0,0,0,-0.0125,-0.0124,0,-0.005,-0.0049,-0.0048,-0.0018,-0.0018,-0.0018,-0.0019,0.0043,0.0045,0.0046,0,0,0,0,0,0,0,0,0,0,0,0,0,-0.0166,-0.0166,-0.0125,-0.0124,-0.0123,-0.005,-0.0049,-0.0047,-0.0018,-0.0018,-0.0018,-0.0019,0.0042,0.0044,0.0047,0,0,0,0,0,0,0,0,0,0,0,0,0,-0.0124,-0.0166,-0.0125,-0.01,-0.0098,-0.005,-0.0049,-0.0047,-0.0017,-0.0018,-0.0018,-0.0019,0.0041,0.0044,0.0047,0.0074,0,0,0.0056,0.0057,0,0,0,0,0,0,0,0,-0.0127,-0.0122,-0.0105,-0.0102,-0.0099,-0.0045,-0.0041,-0.0008,-0.0017,-0.0046,-0.0019,-0.0019,0.0012,0.0017,0.0034,0.0077,0.008,0.0056,0.0058,0.0059,0.006,0,0,0,0,0,0,0,-0.013,-0.0125,-0.0093,-0.0104,-0.01,-0.0067,-0.0062,-0.0034,-0.0015,-0.0044,-0.0042,-0.0036,0.0013,0.0032,0.0036,0.0081,0.0056,0.0059,0.006,0.0061,0.0136,0.0137,0,0,0,0,0,0,-0.0145,-0.0128,-0.0096,-0.0091,-0.0116,-0.0067,-0.0061,-0.006,-0.0015,-0.0008,-0.0035,-0.0035,0.0027,0.0033,0.0038,0.0045,0.0059,0.0062,0.0063,0.0136,0.0137,0.0137,0,0,0,0,0,0,-0.0146,-0.0143,-0.0099,-0.0109,-0.0101,-0.0066,-0.0065,-0.0059,-0.0043,-0.0008,-0.0002,-0.0027,0.0027,0.0034,0.0056,0.0049,0.0063,0.0066,0.0136,0.0136,0.0137,0.0077,0,0,0,0,0,0,-0.0148,-0.0144,-0.0151,-0.011,-0.0101,-0.0077,-0.0065,-0.0057,-0.0039,-0.0037,0.0001,0.0006,0.0027,0.0051,0.0059,0.0053,0.0068,0.0136,0.0136,0.0137,0.0078,0.0075,0.0072,0,0,0,0,0,-0.015,-0.0157,-0.0151,-0.0148,-0.0111,-0.0077,-0.0069,-0.0044,-0.0039,-0.0032,-0.001,0.0005,0.006,0.0054,0.0063,0.0057,0.0135,0.0136,0.0137,0.008,0.0076,0.0072,0,0,0,0,0,0,-0.0181,-0.0154,-0.0147,-0.0147,-0.0118,-0.0073,-0.0068,-0.0046,-0.002,-0.0036,0.0009,0.0016,0.0031,0.0058,0.0051,0.0082,0.01,0.0103,0.0054,0.0051,0.0048,0.0037,0.007,0,0,0,0,0,-0.0191,-0.0192,-0.0154,-0.0158,-0.0145,-0.0106,-0.009,-0.0083,-0.0054,-0.0044,-0.001,0.0017,0.0043,0.0056,0.0081,0.0101,0.0135,0.0105,0.0102,0.0099,0.0098,0.0147,0.0148,0.0139,0.0139,0.0139,0,0,-0.0205,-0.0192,-0.0192,-0.0165,-0.0143,-0.0134,-0.0098,-0.0093,-0.0088,-0.0042,-0.0026,0.0004,0.0046,0.0061,0.0071,0.0082,0.0119,0.01,0.0097,0.0097,0.0148,0.0148,0.0149,0.0139,0.0139,0.0139,0,0,-0.0229,-0.0221,-0.0224,-0.0207,-0.0189,-0.0168,-0.0168,-0.013,-0.0114,-0.0096,-0.0063,-0.0034,0.0009,0.0041,0.0062,0.0062,0.0098,0.0068,0.0045,0.0092,0.0093,0.0095,0.0132,0.0137,0.0069,0.0069,0.0069,0,-0.0247,-0.0256,-0.0219,-0.0219,-0.0219,-0.0185,-0.0195,-0.0167,-0.0129,-0.0114,-0.0107,-0.0032,-0.0001,0.0037,0.0033,0.0053,0.0083,0.0051,0.0087,0.0089,0.0091,0.013,0.0136,0.0066,0.0066,0.0067,0.0067,0,-0.0289,-0.0282,-0.0284,-0.0278,-0.0263,-0.0279,-0.0241,-0.0229,-0.0212,-0.0178,-0.014,-0.0088,-0.004,-0.0024,0.0002,0.0037,0.0053,0.0073,0.0091,0.0088,0.0129,0.0137,0.0062,0.0063,0.0064,0.0064,0,0,-0.0336,-0.0323,-0.0312,-0.0325,-0.0312,-0.0307,-0.0299,-0.0273,-0.0266,-0.0221,-0.0191,-0.0137,-0.01,-0.0072,-0.0026,0.0017,0.0056,0.0045,0.0049,0.0072,0.0153,0.0187,0.0199,0.0079,0.008,0.0081,0.0172,0,-0.0377,-0.0399,-0.0376,-0.0395,-0.0407,-0.0381,-0.0371,-0.0345,-0.0307,-0.0267,-0.0199,-0.016,-0.0118,-0.0101,-0.0049,0.0031,0.0074,0.0029,0.0161,0.0165,0.0188,0.0209,0.0182,0.0263,0.018,0.0181,0.0182,0,-0.0413,-0.0425,-0.0455,-0.0463,-0.0465,-0.0478,-0.047,-0.0455,-0.0383,-0.0351,-0.0288,-0.0224,-0.0146,-0.0117,0.0021,-0.0012,0.0061,0.0124,0.013,0.0188,0.0214,0.0256,0.028,0.0195,0.0194,0.0193,0.0192,0,-0.0463,-0.0471,-0.0508,-0.0515,-0.0517,-0.0532,-0.0539,-0.0486,-0.0473,-0.0395,-0.0372,-0.0266,-0.0212,-0.0105,0.0032,0.0024,0.0184,0.0192,0.0293,0.0296,0.0314,0.0317,0.0284,0.0283,0.0283,0.0283,0.0283,0,-0.0514,-0.0531,-0.0542,-0.0564,-0.0621,-0.0592,-0.0625,-0.0601,-0.0553,-0.053,-0.042,-0.0369,-0.0207,-0.0089,0.0023,0.0189,0.0182,0.0296,0.0327,0.0292,0.0292,0.0267,0.0264,0.0286,0.0286,0.0285,0.0284,0,-0.054,-0.0547,-0.06,-0.063,-0.0644,-0.0684,-0.0709,-0.0719,-0.0656,-0.0619,-0.0597,-0.0442,-0.0281,-0.0112,0.0076,0.0181,0.033,0.0386,0.0332,0.0356,0.0408,0.04,0.0505,0.0507,0.0508,0.051,0.0511,0,-0.0559,-0.0578,-0.0656,-0.0708,-0.0731,-0.0781,-0.0814,-0.0782,-0.0771,-0.0657,-0.0634,-0.0469,-0.0331,-0.0035,0.0173,0.0388,0.0382,0.0482,0.0468,0.0413,0.0433,0.0423,0.0414,0.0465,0.0466,0.0466,0.0467,0,-0.0598,-0.0628,-0.0688,-0.0786,-0.085,-0.0902,-0.0933,-0.0932,-0.0862,-0.0799,-0.0672,-0.0551,-0.0256,-0.0003,0.0278,0.0396,0.0446,0.0502,0.0475,0.0412,0.0384,0.04,0.0391,0.0472,0.0472,0.0471,0.0471,0.0471,-0.0646,-0.0704,-0.0788,-0.0875,-0.0949,-0.0996,-0.1013,-0.0997,-0.0952,-0.0814,-0.0705,-0.0491,-0.0254,0.0161,0.0347,0.0522,0.0523,0.0566,0.0561,0.0556,0.0534,0.051,0.0618,0.0618,0.0618,0.0619,0.0619,0,-0.0723,-0.0774,-0.0868,-0.0973,-0.1046,-0.1063,-0.1068,-0.1029,-0.0951,-0.0814,-0.0664,-0.0379,-0.0096,0.0144,0.043,0.0599,0.0572,0.0616,0.0548,0.0542,0.0537,0.0511,0.0591,0.0592,0.0592,0.0592,0,0,-0.077,-0.087,-0.0907,-0.1031,-0.1087,-0.1122,-0.111,-0.102,-0.0901,-0.0734,-0.0573,-0.0368,-0.0074,0.0119,0.0325,0.0468,0.0457,0.0476,0.0483,0.0373,0.0366,0.0498,0.0452,0,0,0,0,0]}],[{"header":{"parameterUnit":"m.s-1","parameterCategory":2,"la1":30.2991,"la2":30.254,"lo1":-89.0895,"lo2":-89.0444,"dy":0.0017,"dx":0.0017,"nx":28,"ny":28,"refTime":"2024-10-08T09:00:00:Z","depth":"4","parameterNumber":2,"parameterNumberName":"U-component_of_CURRENTS"},"data":[0,0,0,0,0,0,0,0,0,0,0,0,0,0,0,0,0,0,0,0,0,0,0,0,0,0,0,0,0,0,0,0,0,0,0,0,0,0,0,0,0,0,0,0,0,0,0,0,0,0,0,0,0,0,0,0,0,0,-0.1189,-0.119,0,-0.1226,-0.1226,-0.1226,-0.1263,-0.1264,-0.1265,-0.1265,-0.1292,-0.1292,-0.1292,0,0,0,0,0,0,0,0,0,0,0,0,0,-0.1127,-0.1128,-0.1189,-0.119,-0.119,-0.1226,-0.1226,-0.1226,-0.1263,-0.1264,-0.1265,-0.1266,-0.1292,-0.1292,-0.1292,0,0,0,0,0,0,0,0,0,0,0,0,0,-0.1156,-0.1129,-0.1189,-0.1214,-0.1217,-0.1226,-0.1226,-0.1227,-0.1263,-0.1264,-0.1265,-0.1266,-0.1292,-0.1292,-0.1292,-0.1273,0,0,-0.1293,-0.1293,0,0,0,0,0,0,0,0,-0.1155,-0.1158,-0.121,-0.1213,-0.1216,-0.1243,-0.1214,-0.1242,-0.1263,-0.1244,-0.1265,-0.1267,-0.1275,-0.1277,-0.1279,-0.1274,-0.1275,-0.1293,-0.1293,-0.1293,-0.1293,0,0,0,0,0,0,0,-0.1153,-0.1157,-0.1202,-0.1211,-0.1214,-0.1216,-0.1221,-0.122,-0.1251,-0.1245,-0.1249,-0.1256,-0.1277,-0.1278,-0.128,-0.1275,-0.1293,-0.1293,-0.1293,-0.1293,-0.1343,-0.1345,0,0,0,0,0,0,-0.1152,-0.1155,-0.1201,-0.1203,-0.1189,-0.1217,-0.1223,-0.1232,-0.1252,-0.1257,-0.1255,-0.1257,-0.1278,-0.1279,-0.1281,-0.133,-0.1293,-0.1293,-0.1293,-0.1342,-0.1344,-0.1345,0,0,0,0,0,0,-0.1151,-0.1156,-0.1199,-0.1181,-0.1187,-0.1217,-0.1227,-0.1232,-0.1252,-0.1259,-0.1264,-0.1272,-0.1279,-0.1281,-0.1307,-0.1328,-0.1293,-0.1293,-0.1341,-0.1343,-0.1344,-0.1382,0,0,0,0,0,0,-0.1149,-0.1155,-0.1172,-0.1181,-0.1188,-0.1215,-0.1226,-0.1232,-0.1255,-0.1259,-0.1275,-0.1278,-0.128,-0.1307,-0.1308,-0.1328,-0.1293,-0.1339,-0.1341,-0.1344,-0.1379,-0.1385,-0.139,0,0,0,0,0,-0.1147,-0.1161,-0.1172,-0.1178,-0.1207,-0.1215,-0.1219,-0.1242,-0.1255,-0.1264,-0.1287,-0.1279,-0.1323,-0.1308,-0.1308,-0.1329,-0.1338,-0.1341,-0.1343,-0.1377,-0.1384,-0.139,0,0,0,0,0,0,-0.1139,-0.1167,-0.1179,-0.1201,-0.1213,-0.1223,-0.1237,-0.1248,-0.1272,-0.1279,-0.129,-0.1294,-0.1326,-0.1323,-0.1306,-0.1353,-0.133,-0.1333,-0.1356,-0.1362,-0.1368,-0.1384,-0.1293,0,0,0,0,0,-0.1146,-0.1169,-0.1184,-0.1203,-0.1209,-0.1224,-0.1235,-0.1244,-0.1262,-0.1274,-0.1297,-0.1316,-0.1333,-0.1345,-0.1356,-0.1375,-0.1382,-0.1391,-0.1397,-0.1401,-0.1416,-0.1443,-0.1452,-0.1354,-0.1354,-0.1354,0,0,-0.114,-0.1167,-0.1175,-0.1204,-0.1215,-0.1229,-0.1234,-0.1246,-0.1272,-0.1271,-0.1323,-0.1333,-0.1343,-0.1373,-0.1387,-0.1376,-0.1433,-0.1405,-0.1409,-0.1421,-0.1447,-0.1457,-0.1465,-0.1356,-0.1356,-0.1356,0,0,-0.1141,-0.1171,-0.1185,-0.1206,-0.1231,-0.1237,-0.1244,-0.1265,-0.1292,-0.1328,-0.1341,-0.1376,-0.1398,-0.1421,-0.143,-0.1472,-0.146,-0.1467,-0.1509,-0.1535,-0.1543,-0.155,-0.1571,-0.1579,-0.1472,-0.1472,-0.1472,0,-0.1135,-0.117,-0.1188,-0.1216,-0.124,-0.1244,-0.1262,-0.1282,-0.1317,-0.135,-0.1352,-0.1418,-0.1427,-0.1471,-0.1492,-0.1485,-0.1491,-0.148,-0.1542,-0.1549,-0.1556,-0.1575,-0.1584,-0.1474,-0.1474,-0.1473,-0.1473,0,-0.1139,-0.1185,-0.1196,-0.1238,-0.1258,-0.1275,-0.1302,-0.1334,-0.1365,-0.1394,-0.1456,-0.1475,-0.1519,-0.1524,-0.1521,-0.1575,-0.156,-0.1542,-0.1523,-0.1568,-0.1585,-0.1594,-0.1477,-0.1476,-0.1476,-0.1475,0,0,-0.1096,-0.1179,-0.1194,-0.1229,-0.1279,-0.1289,-0.1339,-0.1386,-0.1432,-0.1471,-0.1539,-0.1576,-0.1593,-0.1606,-0.1607,-0.1632,-0.1687,-0.1611,-0.1611,-0.1628,-0.174,-0.1598,-0.1594,-0.1672,-0.1673,-0.1675,-0.1732,0,-0.11,-0.1152,-0.1205,-0.1262,-0.1282,-0.1334,-0.1384,-0.1431,-0.1479,-0.1546,-0.158,-0.1635,-0.162,-0.1645,-0.167,-0.1685,-0.1712,-0.1673,-0.1698,-0.1699,-0.1564,-0.16,-0.1681,-0.1739,-0.1741,-0.1742,-0.1743,0,-0.1094,-0.1138,-0.1185,-0.1287,-0.1303,-0.1345,-0.1431,-0.1479,-0.1566,-0.1609,-0.1668,-0.1695,-0.1755,-0.1727,-0.1784,-0.1756,-0.1759,-0.1762,-0.1764,-0.1625,-0.1572,-0.1686,-0.1759,-0.1758,-0.1757,-0.1756,-0.1755,0,-0.1035,-0.1137,-0.1177,-0.1209,-0.1303,-0.1358,-0.1414,-0.1501,-0.1556,-0.1655,-0.1703,-0.1766,-0.1809,-0.1826,-0.1834,-0.1817,-0.1879,-0.1855,-0.1734,-0.1724,-0.1819,-0.1811,-0.1899,-0.1899,-0.1899,-0.1898,-0.1898,0,-0.1018,-0.1064,-0.1163,-0.1185,-0.1257,-0.1336,-0.1422,-0.1492,-0.1591,-0.1653,-0.1733,-0.1776,-0.1836,-0.1871,-0.1864,-0.1819,-0.1906,-0.1751,-0.173,-0.1833,-0.1826,-0.1825,-0.1816,-0.1901,-0.19,-0.19,-0.1899,0,-0.095,-0.1015,-0.1073,-0.1185,-0.1229,-0.1279,-0.1421,-0.1472,-0.1582,-0.1666,-0.1701,-0.1805,-0.1839,-0.1874,-0.191,-0.1846,-0.1826,-0.1789,-0.1906,-0.189,-0.1651,-0.1643,-0.1665,-0.1661,-0.1657,-0.1654,-0.1651,0,-0.091,-0.0926,-0.1049,-0.1087,-0.1151,-0.1245,-0.1304,-0.1443,-0.15,-0.166,-0.1685,-0.1773,-0.1819,-0.176,-0.1802,-0.1778,-0.1748,-0.1737,-0.1686,-0.1649,-0.1628,-0.1626,-0.1624,-0.1645,-0.1644,-0.1643,-0.1642,0,-0.0831,-0.0885,-0.0937,-0.1008,-0.1085,-0.1165,-0.1271,-0.1311,-0.1463,-0.1574,-0.162,-0.1637,-0.1673,-0.1674,-0.1664,-0.1645,-0.1742,-0.1697,-0.1704,-0.1656,-0.1625,-0.1607,-0.1609,-0.1628,-0.163,-0.1632,-0.1632,0,-0.0771,-0.0794,-0.086,-0.0925,-0.1013,-0.1069,-0.1144,-0.122,-0.1298,-0.148,-0.1485,-0.1572,-0.1659,-0.1605,-0.1597,-0.1561,-0.1531,-0.1479,-0.1497,-0.1512,-0.1429,-0.1365,-0.1279,0,0,0,0,0,-0.0702,-0.0722,-0.0764,-0.084,-0.0924,-0.0975,-0.111,-0.1186,-0.1344,-0.1332,-0.1407,-0.1426,-0.1422,-0.1463,-0.139,-0.1519,-0.1535,-0.1428,-0.1484,-0.1554,-0.157,-0.1482,0,0,0,0,0,0,-0.0644,-0.0698,-0.0727,-0.0756,-0.0785,-0.087,-0.0955,-0.1061,-0.1071,-0.1221,-0.122,-0.1315,-0.1324,-0.1424,-0.1347,-0.1358,-0.136,-0.1476,-0.1472,-0.1546,-0.156,-0.1572,-0.1487,0,0,0,0,0]},{"header":{"parameterUnit":"m.s-1","parameterCategory":2,"la1":30.2991,"la2":30.254,"lo1":-89.0895,"lo2":-89.0444,"dy":0.0017,"dx":0.0017,"nx":28,"ny":28,"refTime":"2024-10-08T09:00:00:Z","depth":"4","parameterNumber":3,"parameterNumberName":"V-component_of_CURRENTS"},"data":[0,0,0,0,0,0,0,0,0,0,0,0,0,0,0,0,0,0,0,0,0,0,0,0,0,0,0,0,0,0,0,0,0,0,0,0,0,0,0,0,0,0,0,0,0,0,0,0,0,0,0,0,0,0,0,0,0,0,0.0076,0.0077,0,0.0118,0.0118,0.0118,0.0129,0.0129,0.0129,0.0128,0.0179,0.0181,0.0182,0,0,0,0,0,0,0,0,0,0,0,0,0,0.0044,0.0044,0.0076,0.0077,0.0078,0.0118,0.0118,0.0118,0.0129,0.0129,0.0129,0.0128,0.0179,0.0181,0.0182,0,0,0,0,0,0,0,0,0,0,0,0,0,0.0067,0.0044,0.0076,0.0089,0.0091,0.0117,0.0118,0.0118,0.0129,0.0129,0.0128,0.0128,0.0178,0.018,0.0182,0.0198,0,0,0.0189,0.019,0,0,0,0,0,0,0,0,0.0065,0.0068,0.0087,0.0088,0.009,0.012,0.0125,0.0146,0.0129,0.0112,0.0128,0.0128,0.0162,0.0165,0.017,0.0201,0.0203,0.0189,0.0191,0.0191,0.0192,0,0,0,0,0,0,0,0.0064,0.0066,0.0091,0.0087,0.009,0.0106,0.0108,0.0129,0.0136,0.0114,0.0115,0.0123,0.0162,0.0168,0.0172,0.0203,0.0189,0.0191,0.0192,0.0193,0.0253,0.0253,0,0,0,0,0,0,0.0061,0.0065,0.0089,0.0092,0.008,0.0107,0.0109,0.0109,0.0135,0.014,0.0123,0.0123,0.0164,0.0169,0.0173,0.0186,0.0191,0.0193,0.0195,0.0252,0.0253,0.0253,0,0,0,0,0,0,0.006,0.0062,0.0088,0.0081,0.0086,0.0107,0.0107,0.011,0.0118,0.0143,0.0147,0.0128,0.0165,0.017,0.0189,0.0188,0.0194,0.0196,0.0252,0.0252,0.0253,0.0215,0,0,0,0,0,0,0.0059,0.0061,0.0059,0.0081,0.0086,0.0103,0.0107,0.0111,0.0124,0.0124,0.0149,0.0153,0.0165,0.0186,0.0191,0.0191,0.0198,0.0252,0.0252,0.0253,0.0216,0.0214,0.0213,0,0,0,0,0,0.0057,0.0058,0.0059,0.0062,0.0082,0.0103,0.0107,0.0121,0.0124,0.0127,0.0141,0.0153,0.0193,0.0187,0.0194,0.0194,0.0251,0.0252,0.0253,0.0217,0.0215,0.0213,0,0,0,0,0,0,0.0048,0.006,0.0061,0.0066,0.0082,0.0106,0.0114,0.0122,0.0136,0.0139,0.0156,0.0161,0.0177,0.0195,0.0188,0.0215,0.0225,0.0227,0.0196,0.0194,0.0192,0.018,0.02,0,0,0,0,0,0.0044,0.0039,0.0061,0.0063,0.0074,0.0093,0.0103,0.0114,0.0131,0.0137,0.0148,0.0167,0.0185,0.0196,0.0213,0.0229,0.0249,0.0235,0.0234,0.0232,0.0227,0.0261,0.0261,0.0255,0.0255,0.0255,0,0,0.0042,0.0046,0.0045,0.006,0.0074,0.0078,0.0098,0.0117,0.0115,0.0142,0.014,0.0162,0.0189,0.0201,0.0211,0.0215,0.0244,0.0233,0.0231,0.0227,0.0262,0.0262,0.0263,0.0255,0.0255,0.0255,0,0,0.0033,0.004,0.0035,0.0042,0.0063,0.0075,0.008,0.0102,0.0109,0.0119,0.0134,0.0154,0.0178,0.0193,0.0206,0.021,0.0234,0.0219,0.02,0.0232,0.0233,0.0233,0.0254,0.0257,0.0218,0.0218,0.0218,0,0.0037,0.0019,0.0039,0.0034,0.0033,0.0069,0.0062,0.008,0.01,0.0102,0.0115,0.0149,0.0173,0.0188,0.0188,0.0205,0.0224,0.0202,0.0229,0.023,0.0231,0.0252,0.0256,0.0216,0.0216,0.0216,0.0217,0,0.0026,0.0004,0.0005,-0.0001,0.0005,0.0009,0.0032,0.004,0.0055,0.0068,0.0088,0.0123,0.0141,0.0157,0.0175,0.0194,0.0205,0.0221,0.023,0.0229,0.0252,0.0256,0.0214,0.0214,0.0215,0.0215,0,0,0.0033,0.0005,-0.0004,-0.003,-0.0017,-0.0018,-0.0012,-0.0002,-0.0006,0.0029,0.0027,0.007,0.0094,0.0111,0.014,0.0173,0.0201,0.0198,0.0201,0.0211,0.0266,0.026,0.0265,0.0223,0.0224,0.0225,0.0275,0,0.0013,-0.0021,-0.003,-0.0074,-0.009,-0.0073,-0.0081,-0.0066,-0.0042,-0.0032,0.0023,0.0036,0.0076,0.0086,0.0125,0.018,0.0212,0.0185,0.0271,0.0273,0.0262,0.0269,0.0227,0.0278,0.0279,0.028,0.0281,0,-0.0004,-0.0036,-0.0075,-0.0134,-0.0138,-0.0155,-0.0166,-0.0166,-0.013,-0.011,-0.0072,-0.0029,0.002,0.0059,0.0152,0.0134,0.0194,0.0244,0.0247,0.0257,0.0276,0.0282,0.0289,0.0288,0.0288,0.0287,0.0287,0,-0.0017,-0.008,-0.0119,-0.0133,-0.0172,-0.0193,-0.0208,-0.0192,-0.0199,-0.0156,-0.0149,-0.008,-0.0045,0.0041,0.0149,0.0149,0.0259,0.0272,0.0324,0.0324,0.033,0.0329,0.0342,0.0342,0.0342,0.0342,0.0342,0,-0.0039,-0.0086,-0.0137,-0.0155,-0.0227,-0.0233,-0.0279,-0.0274,-0.0262,-0.0271,-0.0195,-0.0174,-0.0045,0.0037,0.0133,0.0241,0.0248,0.0319,0.0339,0.0313,0.0309,0.0333,0.0331,0.0344,0.0343,0.0343,0.0343,0,-0.0051,-0.0079,-0.0137,-0.0196,-0.0231,-0.0276,-0.0342,-0.0365,-0.0344,-0.0347,-0.0336,-0.0242,-0.0133,-0.0003,0.0143,0.0212,0.032,0.036,0.0316,0.0332,0.0364,0.036,0.0408,0.0408,0.0408,0.0408,0.0408,0,-0.0048,-0.0074,-0.0163,-0.022,-0.0258,-0.0334,-0.0386,-0.0402,-0.0417,-0.0387,-0.0384,-0.0283,-0.0206,-0.0005,0.0131,0.0307,0.0338,0.0382,0.038,0.0358,0.0372,0.0368,0.0363,0.0409,0.0409,0.0409,0.0409,0,-0.0049,-0.0078,-0.0131,-0.0244,-0.0324,-0.0414,-0.0479,-0.0502,-0.0504,-0.0486,-0.0416,-0.0304,-0.0177,-0.0009,0.0135,0.0261,0.0343,0.0385,0.0385,0.0383,0.036,0.0373,0.0368,0.041,0.041,0.041,0.041,0,-0.0041,-0.0084,-0.0154,-0.0269,-0.0378,-0.0468,-0.0506,-0.0528,-0.0542,-0.0494,-0.047,-0.0322,-0.0227,-0.0033,0.0096,0.0223,0.025,0.028,0.0286,0.0287,0.0241,0.0193,0.0206,0,0,0,0,0,-0.0023,-0.0082,-0.018,-0.0304,-0.042,-0.0481,-0.056,-0.0579,-0.0582,-0.0536,-0.0501,-0.0375,-0.0171,-0.0075,0.0051,0.0088,0.026,0.0236,0.0293,0.0414,0.0413,0.038,0,0,0,0,0,0,-0.0008,-0.0091,-0.0165,-0.0325,-0.0414,-0.0531,-0.0582,-0.0589,-0.0555,-0.0527,-0.041,-0.0346,-0.0138,-0.0229,0.0059,0.0096,0.0146,0.0339,0.0342,0.0415,0.0414,0.0413,0.0379,0,0,0,0,0]}]]